Weather in Soligalich

Russia / Kostroma Oblast     59°04′42″N   42°17′16″E
temp.,
°C
wind,
m/s
gust,
m/s
humid.,
%
clouds,
%
prec.,
mm/h
press.,
hPa
HPBL,
m
19 april, mon
mon1900:00+1ene41175100 0.0 1032453
03:00−1ene311825 0.0 1033350
06:00−1ene310795 0.0 1033379
09:00+3e58545 0.0 10331014
12:00+6e57445 0.0 10331542
15:00+7e56415 0.0 10321654
18:00+6e47487 0.0 10321341
21:00+1e310702 0.0 1033296
20 april, tue
tue2000:00−1e311750 0.0 1033281
03:00−1e310740 0.0 1033268
06:00−1e311670 0.0 1032405
09:00+5ese59370 0.0 1032960
12:00+8ese58315 0.0 10301421
15:00+9ese58332 0.0 10281586
18:00+8ese494587 0.0 10261235
21:00+4ese4136159 0.0 1026546
21 april, wed
wed2100:00+2ese41462100 0.0 1024580
03:00+2e51562100 0.0 1021613
06:00+2ese61756100 0.0 1017797
09:00+1ese71877100 0.2 1015920
12:00+2ese71690100 1.6 1012926
15:00+1ese71796100 2.3 1011824
18:00+2se71696100 0.7 1009993
21:00+3se61596100 1.1 10081179
22 april, thu
thu2200:00+3s61497100 0.8 10091265
03:00+3s61287100 0.8 10121289
06:00+3s51188100 0.1 1013823
09:00+7s6127476 0.2 10131486
12:00+8s6106861 0.6 10141485
15:00+9ssw6116989 1.1 10141413
18:00+7ssw4108086 0.4 10161036
21:00+6s31187100 0.4 1018447
23 april, fri
fri2300:00+4s3119118 0.0 1019291
03:00+3sse28935 0.0 1019166
06:00+4sse31192100 0.0 1019276
09:00+10sse597776 0.0 1019583
12:00+14s586236 0.0 10181331
15:00+14sse586451 1.2 10171364
18:00+13sse5116786 0.3 10171124
21:00+10sse515705 0.3 1017606